TimePST,TemperatureF,Dew PointF,Humidity,Sea Level PressureIn,VisibilityMPH,Wind Direction,Wind SpeedMPH,Gust SpeedMPH,PrecipitationIn,Events,Conditions,WindDirDegrees,DateUTC
12:54 AM,55.9,50.0,80,30.18,-9999.0,ENE,10.4,18.4,N/A,,Clear,60,2013-01-04 08:54:00
1:54 AM,55.9,50.0,80,30.18,-9999.0,NE,10.4,-,N/A,,Clear,50,2013-01-04 09:54:00
2:54 AM,55.9,50.0,80,30.18,-9999.0,ENE,15.0,-,N/A,,Clear,60,2013-01-04 10:54:00
3:54 AM,55.0,50.0,83,30.19,-9999.0,ENE,13.8,-,N/A,,Clear,60,2013-01-04 11:54:00
4:54 AM,55.9,50.0,80,30.19,-9999.0,ENE,12.7,-,N/A,,Clear,70,2013-01-04 12:54:00
5:54 AM,54.0,17.1,23,30.21,7.0,ENE,11.5,-,N/A,,Clear,70,2013-01-04 13:54:00
6:54 AM,54.0,13.3,20,30.22,7.0,ENE,12.7,-,N/A,,Clear,60,2013-01-04 14:54:00
7:54 AM,55.9,13.3,19,30.25,7.0,ENE,9.2,-,N/A,,Clear,60,2013-01-04 15:54:00
8:54 AM,60.1,16.3,18,30.26,7.0,ENE,12.7,-,N/A,,Clear,70,2013-01-04 16:54:00
9:54 AM,63.0,19.0,18,30.27,7.0,NE,8.1,-,N/A,,Clear,50,2013-01-04 17:54:00
10:54 AM,66.9,20.5,17,30.26,7.0,SSE,6.9,-,N/A,,Clear,160,2013-01-04 18:54:00
11:54 AM,64.9,32.7,30,30.23,7.0,South,9.2,-,N/A,,Clear,170,2013-01-04 19:54:00
12:54 PM,64.9,32.9,30,30.20,7.0,South,10.4,-,N/A,,Partly Cloudy,170,2013-01-04 20:54:00
1:54 PM,63.0,41.7,46,30.19,7.0,South,11.5,-,N/A,,Partly Cloudy,180,2013-01-04 21:54:00
2:54 PM,64.6,43.2,46,30.18,7.0,South,13.8,-,N/A,,Clear,170,2013-01-04 22:54:00
3:54 PM,64.9,41.7,43,30.19,7.0,SSE,11.5,-,N/A,,Clear,160,2013-01-04 23:54:00
4:54 PM,65.3,47.1,52,30.19,7.0,South,6.9,-,N/A,,Clear,180,2013-01-05 00:54:00
5:54 PM,60.3,48.7,66,30.21,7.0,Calm,Calm,-,N/A,,Clear,0,2013-01-05 01:54:00
6:54 PM,57.9,44.2,60,30.22,7.0,ENE,3.5,-,N/A,,Clear,70,2013-01-05 02:54:00
7:54 PM,53.1,36.3,53,30.24,7.0,NE,4.6,-,N/A,,Clear,50,2013-01-05 03:54:00
8:54 PM,50.2,37.8,62,30.25,7.0,NNE,5.8,-,N/A,,Clear,20,2013-01-05 04:54:00
9:54 PM,46.6,35.2,65,30.25,7.0,North,5.8,-,N/A,,Clear,360,2013-01-05 05:54:00
10:54 PM,45.9,35.1,66,30.26,7.0,North,5.8,-,N/A,,Clear,360,2013-01-05 06:54:00
11:54 PM,42.1,35.1,76,30.24,-9999.0,North,4.6,-,N/A,,Clear,360,2013-01-05 07:54:00